COSMOS 1275 DEB, 39954

Orbit data source: Space-Track

COSMOS 1275 DEB, 39954 is space debris in LEO originally from a launch on Thu, 04 Jun 1981 UTC launched from the Plesetsk Missile And Space Complex (PKMTR). Debris objects in space refer to the collection of defunct objects orbiting the Earth. Examples of debris include non-operational satellites, rocket bodies, and fragments generated from explosions, collisions, or faulty payload assembly.

Loading next visibility...
Identifier
39954, 1981-053NQ
Orbit
LEO
Country
Flag of CISCIS
Related business
Manufacturer
Unknown
Mission
Spacecraft
Bus & Motor
Unknown
Mass
Unknown
Launch date (UTC)
1981-06-04 (45 years ago)
Launch vehicle
Unknown
Launch site
Plesetsk Missile And Space Complex (PKMTR)
Object type
Payload
Rocket body
Debris
Shape & HBR
Unknown shape, 0.1 m
Radar Cross Section
Small (<0.1 m²)

Expand to show TLE details & history
Last TLE update: 2 days ago

TLE from 2 days ago
0 COSMOS 1275 DEB
1 39954U 81053NQ  26036.89943135  .00012505  00000-0  38411-2 0  9998
2 39954  82.8901 199.5306 0040625 304.4253  55.3102 14.41041741604251
Epoch: 2026-02-05T21:35Z
TLE epoch observation values (Epoch: 2026-02-05T21:35:10.868Z)
Latitude
-0.00004°
Longitude
99.69027°
Altitude
741.633 km
Speed
7.493 km/s
True Right ascension
13h 18m 07s
True Declination
0° 00' 00"
Sunlit
Object was in full shadow at epoch
Visualization orbit readout
Latitude
Unknown
Longitude
Unknown
Altitude
Unknown
Speed
Unknown
Apparent Right ascension
Unknown
Apparent Declination
Unknown
Sunlit
N/A
Visualization observer readout
Local Sidereal Time
14:20:31
Azimuth
Unknown
Elevation
Unknown
Doppler factor
Unknown
Orbital elements
Apogee altitude
781.085 km
Perigee altitude
723.152 km
Semi-major axis
7,130.256 km
Eccentricity
0.00406
Inclination
82.8901°
RAAN
199.5306°
Arg. of periapsis
304.4253°
True anomaly
55.69408°
Mean anomaly
55.3102°
Eccentric anomaly
55.50203°
Mean motion
3.60484 °/min
Orbital period
99.87 mins
BSTAR
0.0038411
Loading maneuver chart data...
Computing Atmospheric mass density...
Loading historical data...
Loading historical data...
Loading historical data...
Loading historical data...
Loading historical data...
Loading historical data...
Loading historical data...

Documentation

Showing up to 5 results
|